Location: Brabourne
(51.1333°N, 1.0000°E)
Time: 07:38:09
(UTC+00:00)

Cosmos 2151 - Pass Details

Date: 20 June 2021
Orbit: 582 x 600 km, 82.5° (Epoch: 02 August)

Event Time Altitude Azimuth Distance (km) Brightness Sun altitude
Exits shadow 01:45:00 12° 171° (S) 1,762 4.9 -11.8°
Maximum altitude 01:48:45 54° 95° (E) 716 3.5 -11.5°
Drops below altitude 10° 01:52:52 10° 18° (NNE) 1,915 7.1 -11.2°
Sets 01:55:06 0° 14° (NNE) 2,819 8.3 -11.1°
